INTELSAT 36 (IS-36) (41747 NORAD) Tracking and Keplerian Element Data

This shows tracking and keplerian element data for the satellite.

Feedback or suggestion? Click here.




ElementValue
Catalog41747
NameINTELSAT 36 (IS-36)
Epoch Orbit1010
Epoch Day145.91716155
Epoch Year2019
RAAN353.2845
Inclination0.012
Eccentricity8.58E-05
Argument of Perigee8.1083
Mean Anonmoly280.4699
Mean Motion1.0027113
Decay Rate-2.8E-07
L11 41747U 16053A 19145.91716155 -.00000028 00000-0 00000-0 0 9994
L22 41747 0.0120 353.2845 0000858 8.1083 280.4699 1.00271130 10104

Live tracking and technical data element details for INTELSAT 36 (IS-36) (NORAD 41747). INTELSAT 36 (IS-36) can be tracked NOW for your location showing map with azimuth and elevation plus other details from your city location.

Track the satellite on the map from your city or location and see movement details for azimuth, elevation, latitude, longitude, range, height, and movement on the map or in text.







IsCatalogInMostPopularTable: catalog: 41747, numindb: 193
Update: records affected: 1



GetName: 41747 INTELSAT 36 (IS-36)

Hit Count: updated at: Sun, 26 May 2019 18:57:20 GMT